Theta_e
329 330 330 330 330 331 332 332 332 332 334 336 335 332 333 334 335 335 332 332 333 334 335 335 336 336 335 334 333 332 331 331 330 329 329 330 332 333 334 333 333 335 336 337 335 333 333 332 331 330 329 327 326 326 326 325 324 323 323 322 322 322 321 322 321 321 320 320 319 319 319 319 320 319 319 319 319 319 318 318 319 320 320 320 320
332 331 332 331 331 333 333 332 332 334 335 335 333 332 332 331 332 333 332 331 333 337 335 335 336 335 334 333 332 331 330 328 326 325 325 326 328 329 330 329 329 331 332 332 332 331 331 331 330 329 329 328 326 325 324 323 323 323 322 321 321 322 321 320 321 321 320 318 319 319 319 318 319 318 318 318 317 318 318 318 318 318 319 319 319
334 332 333 332 332 333 333 333 334 334 333 333 334 334 332 332 332 333 331 330 332 335 333 334 335 334 334 332 330 330 328 326 324 322 321 322 323 326 326 327 327 327 328 329 330 330 330 329 328 327 327 327 326 326 325 322 321 321 320 320 320 320 320 319 320 320 320 318 318 318 318 318 318 318 318 317 317 317 317 317 317 317 317 318 319
334 333 334 332 332 333 332 332 332 334 334 334 336 334 334 334 334 333 333 331 327 327 329 333 334 334 332 330 329 327 325 323 321 320 319 320 320 321 324 325 326 325 325 327 328 329 328 328 327 326 325 325 325 324 323 321 320 320 320 319 319 319 319 320 319 320 319 318 318 318 318 319 319 318 318 316 316 316 317 316 317 317 317 318 317
334 335 337 333 332 331 330 331 332 334 334 335 335 334 333 333 333 332 329 325 324 324 326 331 333 332 331 329 327 324 323 321 320 320 319 319 319 319 320 323 324 323 323 323 325 326 327 327 326 326 324 323 322 322 322 322 321 320 320 319 319 319 319 319 319 319 320 318 317 318 317 318 317 319 318 316 316 317 317 316 316 316 317 317 316
335 334 335 333 331 331 331 331 332 334 334 334 332 331 331 331 332 330 329 323 321 322 326 329 332 331 330 328 326 324 322 320 320 320 319 318 318 318 317 318 318 321 322 322 323 323 324 324 324 324 323 322 321 320 320 320 321 321 320 318 318 319 319 318 318 318 319 318 318 317 318 317 317 317 317 316 316 317 316 316 316 316 316 316 316
335 334 333 332 331 330 331 332 332 333 333 332 331 330 330 330 330 325 322 321 321 324 324 328 330 329 328 327 325 323 322 320 320 319 318 317 317 316 316 316 316 317 318 319 323 321 320 320 321 320 320 320 321 321 320 320 319 319 319 319 318 317 318 318 318 318 318 317 317 316 316 317 317 317 316 316 316 317 316 316 316 316 316 315 316
335 334 333 332 331 330 331 332 333 332 332 331 330 329 329 329 329 323 319 319 319 318 322 324 326 326 326 325 324 323 320 320 319 318 317 317 316 315 315 316 317 321 321 317 319 321 320 319 319 320 319 319 319 320 320 320 319 318 317 318 317 316 316 317 317 317 316 316 316 316 316 316 316 317 316 316 317 317 315 315 316 315 315 315 315
335 334 333 332 331 331 332 332 332 331 331 330 329 329 329 329 328 326 320 317 317 317 318 320 320 321 321 321 322 321 319 319 318 317 316 314 314 314 316 319 323 322 314 316 316 318 318 318 318 319 318 317 317 318 319 319 318 317 317 317 317 316 315 316 317 316 316 316 316 316 315 315 315 316 316 315 316 316 315 315 315 316 316 315 315
335 334 333 333 332 332 332 332 332 330 330 330 329 328 328 327 324 321 319 317 316 317 315 316 317 316 316 315 315 315 315 316 318 319 314 313 313 314 315 316 314 313 314 314 313 313 314 318 319 318 317 315 314 314 316 317 316 316 316 316 316 315 315 315 315 316 316 316 316 316 315 314 315 315 315 315 315 315 315 315 315 315 315 314 315
334 334 332 334 332 332 332 332 332 330 329 328 328 329 327 325 323 319 318 317 316 316 314 314 313 313 312 312 313 313 314 316 315 313 313 313 314 314 310 311 311 311 313 312 311 310 310 310 310 311 315 313 312 312 314 315 314 314 315 315 315 314 314 314 315 316 316 316 315 316 315 314 315 315 315 315 314 315 315 314 314 315 314 314 314
335 334 333 333 332 332 331 332 331 329 328 328 327 328 326 323 320 317 316 316 315 314 314 313 311 311 312 310 311 311 311 312 311 311 313 313 314 311 309 307 309 310 311 310 308 308 308 309 315 309 313 316 312 311 312 312 314 313 313 314 314 314 314 314 314 315 316 316 315 315 315 314 314 315 315 315 314 314 314 314 314 314 314 314 314
337 335 332 335 332 332 331 332 331 329 328 329 328 327 326 324 321 319 315 313 313 314 313 312 309 307 308 308 308 312 314 310 309 309 310 310 310 308 310 308 307 310 309 308 307 307 309 309 309 308 310 308 310 315 315 314 314 314 312 313 314 314 313 313 314 315 316 316 315 315 315 314 314 314 314 314 313 314 315 314 314 314 313 313 313
337 335 333 333 331 331 331 331 330 328 328 328 327 329 325 322 319 317 318 314 312 313 312 311 310 305 304 305 308 309 313 308 308 308 308 308 308 308 308 306 307 307 307 306 306 306 306 307 309 308 307 307 309 309 311 313 312 316 312 312 313 313 313 313 314 315 316 315 315 314 314 314 314 314 314 314 313 314 315 314 314 313 313 313 312
336 335 333 332 331 331 330 330 329 328 326 325 327 325 323 321 319 317 315 318 316 314 313 314 311 309 309 306 303 303 307 308 308 307 308 308 307 306 307 305 306 306 307 306 306 306 306 306 307 306 307 307 307 307 309 311 316 314 314 313 313 313 313 313 315 316 315 314 314 314 314 313 314 313 313 313 314 315 314 314 313 313 312 312 311
336 335 333 332 331 331 329 328 327 327 325 325 324 323 322 321 320 319 317 314 313 313 316 315 311 310 308 308 305 304 302 303 303 305 306 306 307 307 307 305 306 305 306 304 305 306 306 306 306 306 307 307 307 307 307 310 314 317 316 315 315 316 316 315 315 313 313 313 314 314 313 312 312 312 312 313 314 314 314 313 313 313 312 312 311
334 334 333 330 329 329 328 327 326 326 325 325 324 323 323 322 321 319 317 316 313 313 315 316 314 318 312 306 306 305 305 305 301 303 306 305 304 306 312 306 305 306 306 304 303 304 305 305 306 306 307 306 306 307 307 307 307 314 313 316 316 317 315 313 312 312 313 313 313 313 311 311 311 311 312 312 313 313 313 312 312 312 312 312 312
332 332 332 330 328 326 327 326 325 324 325 324 324 322 322 321 321 320 318 319 316 312 312 318 316 318 314 313 313 310 306 306 304 301 306 308 307 309 307 304 307 307 303 302 303 303 310 307 307 307 305 305 306 306 306 306 313 311 314 315 317 315 311 310 311 312 312 312 312 312 311 310 310 311 312 313 313 313 312 312 312 312 312 312 312
330 330 329 329 327 325 325 325 324 323 325 323 322 322 321 322 322 320 319 319 317 313 313 313 316 315 314 314 315 312 310 305 304 299 299 304 304 303 305 304 306 306 303 303 305 305 304 310 305 306 306 306 306 305 305 305 307 311 313 316 314 311 310 310 311 311 311 311 311 311 311 311 311 312 313 313 313 312 312 312 312 312 312 312 312
328 327 327 327 325 323 323 323 323 322 324 322 322 321 320 320 322 321 320 320 318 317 314 314 316 314 313 312 310 309 307 306 306 308 302 300 300 302 302 303 305 303 305 305 306 305 305 305 309 306 306 304 304 303 304 304 305 306 311 314 311 310 310 309 310 309 309 310 312 311 311 312 312 313 313 313 312 312 312 312 312 312 312 312 312
327 326 326 326 327 323 322 322 322 322 324 320 320 319 319 319 318 317 319 319 318 318 316 314 316 312 309 306 306 306 305 306 305 305 304 300 299 299 302 302 303 303 304 303 303 305 306 306 309 305 307 305 303 303 303 305 307 308 313 311 310 309 309 309 309 310 307 309 310 311 311 312 312 313 313 312 311 311 311 311 311 311 312 312 312
324 324 324 324 325 323 321 321 321 321 322 318 317 316 316 316 317 317 318 318 317 318 317 315 316 314 314 309 307 306 306 306 305 302 302 304 304 299 300 300 299 302 303 303 303 304 304 304 303 302 303 303 303 303 304 305 309 311 311 309 309 308 308 308 307 308 306 306 308 309 310 311 312 313 312 311 311 310 310 310 310 311 311 311 311
323 322 323 323 322 323 321 320 320 323 320 315 315 315 314 314 313 314 315 316 314 315 315 313 314 312 310 310 311 309 308 307 305 304 305 301 301 300 300 299 297 299 304 305 305 302 302 303 303 302 303 303 303 304 305 306 310 307 306 307 308 307 308 307 307 308 307 307 307 308 309 311 311 311 311 310 310 310 310 311 311 311 311 311 311
321 320 320 320 321 320 320 319 319 318 315 315 314 313 312 311 311 311 310 310 312 314 312 310 309 309 308 309 310 309 309 310 307 306 305 304 306 301 299 299 299 301 302 301 300 301 301 302 302 302 302 302 302 304 305 304 308 307 305 305 306 306 307 307 308 308 308 307 307 307 309 310 310 310 310 310 310 310 311 312 312 312 313 312 312
319 319 318 317 319 318 316 316 316 316 314 312 312 311 310 310 310 309 308 309 310 311 310 309 308 309 308 304 306 306 307 304 306 306 304 303 303 299 299 298 300 299 300 300 300 300 300 301 301 302 301 301 301 302 304 305 307 306 306 302 304 306 306 307 307 307 307 307 307 307 308 309 309 310 309 309 310 311 311 311 310 310 310 310 310
320 319 317 316 318 318 317 316 315 314 313 312 311 310 310 309 308 307 307 306 306 307 307 306 305 305 304 304 303 303 302 302 303 303 302 302 301 302 298 296 297 298 298 297 297 297 298 299 300 301 301 301 301 302 304 304 307 306 305 303 302 303 305 306 307 307 307 306 306 306 307 307 308 308 309 309 309 310 310 309 309 309 310 310 309
320 319 316 316 316 316 315 314 312 312 312 312 311 310 310 309 307 306 306 304 304 305 304 304 303 302 302 302 302 301 301 300 301 302 302 305 303 301 300 298 297 297 298 297 297 297 297 299 299 300 301 303 301 302 305 304 306 306 304 301 300 301 304 305 306 306 306 306 305 306 306 306 307 307 308 308 308 308 309 309 309 309 309 309 309
319 317 315 315 314 314 314 312 311 311 311 310 309 309 308 307 306 305 305 305 304 303 303 303 302 302 302 302 302 300 301 300 300 300 299 300 301 302 303 302 299 295 297 297 298 297 298 298 299 300 300 300 301 301 303 301 305 306 302 301 300 300 302 304 305 305 305 304 305 305 305 305 306 306 306 307 308 308 309 309 309 309 308 308 308
318 316 314 313 313 313 312 310 310 310 310 310 309 308 307 307 305 304 304 304 304 302 302 302 302 301 301 301 301 301 301 302 301 300 299 299 299 301 302 302 302 298 294 294 296 296 297 297 296 299 300 299 300 301 300 300 303 305 302 300 300 301 303 305 303 303 303 303 304 304 304 305 306 305 306 307 308 309 309 308 308 308 307 307 307
317 315 313 312 312 315 310 309 309 309 309 308 308 307 306 305 304 304 303 303 303 302 303 302 301 301 302 301 302 301 301 300 300 300 299 299 298 299 299 299 302 300 296 295 295 295 298 297 297 297 299 298 299 300 299 299 304 305 301 300 300 301 304 303 301 301 302 302 302 302 303 304 305 306 306 307 308 308 307 307 307 306 306 306 306
316 314 311 310 311 310 309 308 308 308 308 307 307 306 305 304 304 302 302 302 302 301 301 301 301 301 300 299 299 299 300 300 300 300 300 299 298 297 297 299 300 301 298 297 294 296 298 298 299 298 298 299 298 298 298 299 302 303 301 301 299 302 302 301 301 301 301 301 301 303 304 304 304 304 305 306 307 307 306 306 306 304 305 305 304
316 313 311 310 310 308 308 308 307 307 307 306 306 305 304 304 303 302 302 302 301 301 301 302 301 300 300 299 299 299 299 300 300 300 300 300 300 298 298 297 296 297 298 295 295 295 297 299 299 299 296 298 298 297 298 298 300 301 301 300 300 301 300 300 300 301 301 301 301 301 301 302 302 303 304 305 305 305 305 305 303 303 303 303 303
314 312 310 310 309 308 307 308 307 306 306 305 305 304 304 302 302 302 301 301 301 300 302 300 300 300 300 299 299 299 300 300 299 299 299 299 298 298 298 298 297 296 296 295 295 295 296 296 296 298 298 297 297 295 297 298 299 299 300 300 300 300 299 299 300 300 300 300 301 300 300 300 301 303 303 303 303 303 303 301 300 302 302 302 301
314 312 310 309 308 308 307 307 306 306 306 305 304 304 303 302 301 302 301 301 300 300 300 300 300 300 300 299 298 299 299 299 299 298 298 297 297 297 296 296 296 296 296 295 294 293 293 297 298 296 297 295 297 295 297 297 298 300 299 298 299 299 299 300 299 300 300 301 300 300 300 300 299 300 300 299 299 299 300 299 299 299 300 300 298
314 312 310 309 308 307 307 306 306 306 306 305 304 304 303 302 301 301 301 301 301 300 300 300 299 299 300 300 298 299 300 299 298 298 298 297 297 296 295 296 295 295 295 295 294 292 292 294 294 295 297 296 297 297 296 297 298 297 296 298 298 299 300 300 300 300 299 300 300 300 300 299 299 299 299 299 299 299 299 299 299 299 298 299 298
313 312 311 309 308 307 307 306 306 305 305 304 304 304 303 302 301 301 301 301 301 301 300 300 299 299 299 298 298 299 300 298 297 296 296 296 296 296 295 295 295 295 295 295 294 294 294 294 296 295 296 296 298 295 295 298 296 298 297 297 298 299 300 299 299 300 300 300 300 300 299 299 299 299 299 299 299 299 298 298 298 298 298 298 298
314 312 311 309 308 308 307 306 305 305 304 304 303 303 302 302 302 301 301 300 301 300 300 300 302 299 300 299 298 298 298 297 296 295 295 295 295 295 295 295 295 295 296 295 295 294 294 295 295 295 294 294 295 296 296 296 297 297 298 298 297 298 299 300 300 300 301 300 300 299 299 299 299 299 299 299 298 298 298 298 298 298 298 299 299
314 312 311 309 309 308 307 306 305 305 304 303 303 303 302 302 302 301 301 301 300 300 300 300 300 300 300 299 298 297 297 296 295 294 294 294 294 294 294 294 294 294 294 294 295 294 294 294 296 296 296 296 297 297 296 296 295 296 297 298 299 299 298 298 299 300 300 300 300 300 299 299 299 299 299 298 298 297 298 298 298 298 298 299 299
313 312 311 310 310 309 307 306 305 305 304 303 303 302 302 302 301 301 300 300 300 300 300 300 300 300 299 299 298 297 297 296 295 294 294 294 294 294 295 294 293 294 294 294 294 294 294 294 292 293 293 294 294 295 296 295 295 295 295 296 296 298 299 297 297 299 300 300 300 298 299 299 299 299 298 297 297 298 298 298 299 299 299 298 298
314 312 311 310 309 308 307 306 305 305 303 303 303 302 302 301 301 301 300 300 300 300 300 300 300 300 299 298 297 297 297 296 296 294 294 294 294 294 293 293 293 294 294 293 293 293 294 294 295 294 292 293 295 294 294 295 297 295 296 294 293 295 296 297 297 297 299 300 299 299 299 299 299 299 297 297 298 298 299 299 299 299 299 298 297
314 313 311 310 308 307 306 306 304 304 303 303 302 302 301 301 301 300 300 300 300 300 299 299 299 299 299 298 297 296 299 300 299 298 296 296 294 294 293 294 294 294 293 293 293 293 292 294 294 291 292 293 293 293 294 295 295 295 295 294 294 296 295 295 298 299 299 297 298 299 299 300 298 299 299 298 299 300 299 299 299 299 299 298 297
314 312 311 310 308 307 305 304 304 303 303 303 304 303 303 301 300 301 300 300 300 300 300 299 298 298 298 297 299 302 304 303 301 298 297 298 298 296 294 294 295 293 293 293 293 293 293 294 295 294 295 295 294 293 293 294 295 295 295 295 294 295 295 295 297 300 299 298 297 297 298 300 298 298 298 298 299 300 299 299 299 299 298 297 297
313 312 310 309 307 306 305 304 303 303 303 303 301 297 297 300 301 301 300 300 300 300 300 299 298 298 297 297 298 304 306 305 301 297 296 296 296 296 296 297 297 296 293 293 293 293 296 295 293 292 293 293 294 294 294 295 295 295 295 294 294 294 294 292 292 297 300 298 297 295 297 300 299 297 297 298 299 299 299 299 298 297 297 297 297
313 312 310 309 307 306 305 304 304 303 303 303 297 297 296 297 301 301 300 300 300 301 300 300 299 299 297 296 298 303 302 301 299 298 298 296 295 295 294 295 295 296 296 297 296 293 293 294 292 293 293 293 294 294 294 294 296 296 295 294 294 294 294 293 293 293 299 299 296 295 295 300 299 298 297 298 299 299 299 298 297 297 296 297 296
312 311 310 309 307 306 305 304 304 304 303 299 296 296 296 296 297 300 300 301 301 301 300 300 299 298 297 297 298 300 300 303 301 296 298 298 297 296 295 296 295 294 292 292 295 298 295 294 294 293 293 294 294 296 297 298 296 295 295 295 296 295 294 294 295 295 298 299 296 295 294 297 298 296 295 298 299 299 299 298 297 296 296 296 296
312 311 310 308 307 306 305 305 304 304 303 299 296 296 296 295 295 298 301 301 301 301 300 299 298 298 297 298 299 299 297 302 297 295 295 295 297 297 297 297 296 299 296 292 292 293 295 297 296 296 296 295 297 297 299 298 295 296 296 296 297 295 296 296 296 296 298 298 296 294 293 297 298 296 295 298 299 299 299 298 296 296 296 296 296
312 310 309 308 307 306 305 305 304 303 304 297 295 295 295 295 295 298 301 301 301 301 300 299 299 298 297 299 300 299 297 299 297 295 295 295 295 294 294 295 296 296 297 299 298 297 298 297 296 297 297 295 297 298 297 296 296 297 297 297 296 295 295 295 297 298 298 299 297 294 292 295 298 295 296 297 298 297 299 297 296 296 296 296 296
312 311 310 309 307 306 305 305 304 303 303 295 295 295 295 294 295 302 301 301 300 300 299 298 298 298 298 299 299 297 296 299 299 294 296 295 293 293 294 294 294 295 296 298 295 295 298 298 297 297 297 296 295 297 297 296 296 296 296 297 296 295 294 295 295 296 297 299 298 295 293 294 297 294 295 297 297 296 298 298 297 296 296 296 295
311 310 309 309 308 307 305 305 304 303 302 296 294 294 294 294 297 301 300 300 300 299 299 299 298 298 298 299 298 296 295 297 297 292 293 294 293 294 295 294 294 295 297 296 294 292 293 292 291 292 292 291 291 292 291 292 294 295 294 295 296 294 294 293 294 295 296 297 297 295 294 292 297 295 294 296 296 295 296 298 299 297 296 295 295
311 311 310 308 306 306 305 305 305 303 302 298 294 294 294 294 299 301 301 300 299 300 299 299 299 299 299 302 300 296 295 296 295 292 292 294 293 293 293 293 293 293 296 294 293 295 292 292 292 291 291 291 291 291 292 292 292 294 296 296 298 296 295 294 292 294 294 296 297 296 294 295 296 295 293 294 294 297 297 298 298 298 297 296 295
311 310 308 307 306 306 305 305 307 305 302 299 294 294 294 294 300 301 300 300 299 299 299 299 300 300 299 302 302 298 297 296 293 293 291 294 293 294 294 293 292 292 294 293 294 293 294 295 295 295 295 294 297 296 296 294 293 296 297 298 297 296 295 295 294 293 293 296 297 296 294 295 295 296 293 291 291 294 297 297 297 297 298 298 298
Wind_Speed
4 4 3 3 3 3 2 1 1 1 1 1 2 1 1 0 2 3 3 4 4 4 5 7 7 7 8 8 7 7 6 4 4 5 4 4 5 9 14 14 13 13 14 14 14 14 14 15 15 15 16 16 16 16 16 16 15 15 15 15 15 15 15 14 15 15 15 15 15 15 15 15 15 15 15 16 16 17 17 17 17 18 17 18 18
4 3 4 4 3 3 3 2 3 2 2 2 1 2 2 1 2 3 4 5 4 4 5 7 7 7 7 8 7 6 4 4 5 4 4 5 5 7 14 13 13 12 13 13 14 14 14 15 14 14 15 15 15 15 15 15 15 15 15 14 14 14 14 14 14 14 14 14 14 14 14 15 15 15 15 16 16 16 16 15 15 16 17 17 17
4 4 4 4 4 3 3 3 3 3 2 2 2 2 2 2 3 4 4 4 4 3 5 6 8 7 7 8 7 5 5 4 4 4 4 5 5 5 9 13 12 13 12 13 13 13 14 14 14 14 14 14 14 14 14 15 15 14 14 13 13 13 13 13 12 13 14 14 13 13 14 15 14 15 15 15 14 15 15 15 15 15 15 16 17
5 4 5 5 4 4 3 3 3 3 2 2 2 2 3 3 2 3 4 5 5 4 4 6 8 7 7 8 6 5 5 4 5 5 5 4 5 6 5 6 13 13 13 13 13 13 12 13 13 13 13 13 13 14 14 15 15 14 14 13 13 13 12 12 12 13 13 13 13 13 13 14 14 14 14 14 14 14 15 16 15 15 16 16 17
5 5 5 5 5 5 4 3 3 3 3 3 3 3 3 3 3 3 5 6 6 5 5 5 8 7 6 7 5 6 5 5 4 5 5 4 5 5 5 5 5 11 13 13 13 12 12 12 12 12 13 13 13 14 14 13 13 13 13 13 12 12 12 11 11 12 13 13 13 13 13 13 14 14 13 14 14 16 15 14 15 16 16 16 16
5 5 5 5 4 4 4 3 3 4 3 4 3 3 4 4 4 5 4 5 6 5 6 7 7 7 6 6 5 5 5 5 4 4 4 5 5 5 5 4 5 4 6 12 12 12 12 11 11 11 11 12 13 13 13 12 12 12 12 12 12 12 12 11 11 11 12 12 12 12 12 13 13 14 13 12 13 14 13 14 15 15 15 15 16
5 5 5 5 5 4 4 4 4 4 4 3 3 2 3 5 5 6 5 6 5 4 6 7 8 8 7 5 5 5 5 5 4 4 4 5 5 5 4 4 4 5 5 5 8 11 10 10 10 10 11 11 11 11 11 11 11 11 11 11 12 11 11 11 10 11 11 11 11 11 11 12 12 13 13 13 13 13 13 13 13 13 14 14 14
5 5 5 5 5 4 4 4 4 4 3 3 2 3 4 4 3 6 7 5 6 6 5 7 7 8 6 4 4 4 4 4 4 4 4 5 4 4 4 4 4 4 4 4 4 5 9 8 8 9 10 10 10 9 9 9 10 11 10 10 11 11 11 10 10 10 11 10 9 10 11 11 11 12 12 13 13 13 12 12 12 13 14 14 14
5 6 5 5 5 4 4 4 4 4 4 3 3 2 4 4 4 3 5 6 7 7 6 6 7 6 5 4 4 4 4 4 4 4 4 5 5 4 4 4 4 5 4 4 4 4 5 8 7 7 8 8 8 8 7 9 10 10 10 10 10 11 11 11 10 10 10 10 9 10 10 11 11 11 11 12 13 11 11 12 12 12 13 13 14
5 5 5 5 5 5 4 4 4 4 4 3 3 2 2 5 5 4 4 7 6 8 7 6 5 5 5 5 5 4 4 4 4 4 5 5 4 5 3 3 4 4 4 4 3 3 3 4 6 6 6 6 7 7 7 7 9 10 10 10 10 11 11 11 10 10 10 11 11 10 10 11 10 11 11 11 12 12 11 12 12 11 12 14 14
6 6 5 5 5 5 4 5 4 4 4 4 3 3 3 3 6 6 5 4 6 7 8 7 6 6 6 5 4 4 3 3 3 4 4 4 4 3 3 4 3 3 4 3 2 2 3 2 2 1 2 5 6 8 8 7 8 9 10 10 10 10 11 11 11 10 11 11 12 11 11 11 11 10 11 11 11 11 12 13 12 12 13 14 14
6 6 5 6 5 5 6 5 5 4 4 4 4 5 6 6 6 8 8 6 5 6 8 9 7 7 6 6 5 4 5 4 4 3 3 3 4 3 4 3 3 3 3 2 2 2 2 2 2 1 1 2 3 5 6 6 7 9 9 10 10 10 11 11 11 11 11 12 12 12 12 12 12 12 11 11 12 12 10 10 11 12 13 12 14
6 6 6 6 5 5 5 4 5 5 5 5 5 6 5 6 6 4 8 8 4 4 5 8 10 5 6 6 6 5 4 4 4 3 3 3 3 4 3 4 3 4 3 2 2 2 2 1 1 0 1 1 3 5 7 7 8 8 9 9 10 11 11 11 12 11 12 12 13 13 13 13 13 12 12 12 13 13 12 10 12 12 11 12 11
6 6 6 6 6 5 6 6 6 5 4 4 5 5 6 6 6 5 1 6 6 6 7 7 3 6 7 3 3 4 3 4 4 3 2 2 3 4 4 5 5 4 2 2 2 2 2 1 1 2 2 2 2 3 3 4 5 7 8 9 9 11 11 11 11 12 12 13 14 14 13 13 13 13 14 13 13 13 12 10 10 10 11 9 10
8 7 6 6 6 6 6 6 5 5 5 5 6 7 6 8 8 8 5 2 3 5 6 1 6 4 4 6 3 3 1 2 2 3 2 2 3 4 4 5 5 4 3 3 3 3 2 2 2 3 3 3 3 2 2 3 5 8 7 8 9 11 12 11 11 12 13 14 14 14 13 13 13 13 14 14 13 13 11 10 10 10 11 9 9
9 8 6 6 7 7 6 6 6 5 6 7 6 7 6 6 6 6 8 6 4 7 4 2 5 10 4 1 4 4 3 5 3 1 1 2 4 4 4 5 4 3 3 4 4 3 3 2 3 3 3 3 2 2 2 3 5 6 8 9 10 11 12 11 11 12 13 14 14 14 13 13 13 14 14 14 14 12 11 11 11 10 10 10 11
7 7 7 7 6 6 6 6 6 6 5 6 7 7 7 7 7 7 8 8 7 5 5 2 5 1 7 5 2 2 4 2 4 1 1 3 2 2 3 3 4 5 4 4 3 3 3 3 2 2 3 3 3 2 2 3 3 4 5 8 12 11 11 11 11 11 12 13 14 14 14 14 14 14 14 14 14 12 11 11 11 11 12 11 11
6 7 6 6 6 6 6 7 6 6 6 6 6 5 6 7 7 8 8 5 9 6 6 3 3 2 1 1 4 2 5 2 3 3 1 0 1 1 1 2 2 4 3 4 3 2 1 2 2 3 3 3 3 3 3 4 4 5 5 6 11 10 11 12 12 11 12 13 14 15 15 15 15 14 14 14 14 13 12 12 12 12 12 13 13
6 6 6 6 6 6 6 6 6 6 5 5 6 7 7 7 6 6 7 6 5 7 8 7 2 1 1 3 2 1 7 7 4 3 2 2 2 2 2 2 2 3 4 4 3 1 3 2 2 2 3 3 3 3 4 5 6 7 10 10 10 10 11 11 12 12 12 14 14 15 15 15 15 14 14 14 14 14 14 14 13 13 14 14 16
7 6 7 7 6 6 6 6 6 6 6 6 7 6 5 4 6 7 5 6 7 8 8 6 8 4 2 2 4 4 3 2 6 6 5 5 4 1 3 2 1 2 2 1 1 3 2 2 3 4 3 4 3 4 5 5 5 6 5 9 10 10 11 11 10 11 12 13 14 14 14 14 14 14 14 14 14 14 15 15 15 15 16 16 17
7 8 7 7 6 7 6 6 6 6 5 5 5 6 7 7 6 6 7 6 6 5 6 7 6 6 5 2 4 3 3 3 3 3 4 4 1 4 4 1 1 2 0 2 2 2 1 2 3 3 4 4 5 5 5 5 5 4 5 9 10 10 10 10 9 7 10 13 13 14 14 14 14 14 14 14 14 14 14 15 16 16 17 17 18
5 6 7 7 7 6 7 7 6 6 5 5 5 5 5 5 6 7 7 7 5 6 7 6 7 6 6 7 5 3 3 3 2 3 4 2 5 6 6 7 6 3 3 3 3 3 4 4 5 4 4 4 4 4 4 5 4 3 5 9 9 10 10 10 10 8 11 12 13 14 14 14 14 15 15 15 15 15 15 15 16 16 17 18 19
6 6 6 7 6 6 6 6 5 5 5 5 6 6 6 5 5 4 6 7 6 6 4 5 6 6 6 7 7 8 7 6 6 5 5 3 3 1 2 4 5 4 4 1 4 5 4 4 5 5 4 4 4 4 5 4 3 6 8 8 9 10 10 11 10 9 10 12 13 13 14 14 15 15 15 15 15 15 15 16 16 17 17 18 19
6 6 6 6 6 6 5 5 5 5 5 5 5 5 4 4 4 5 5 4 5 5 6 6 7 5 6 6 6 6 5 6 6 7 7 6 6 4 5 3 3 3 1 5 4 5 5 5 4 4 4 4 4 3 4 4 4 9 5 8 9 10 10 11 10 10 9 10 12 14 15 15 16 16 15 16 16 16 16 16 16 17 18 18 19
7 7 6 7 6 6 6 6 5 5 5 5 5 5 5 5 5 5 5 6 6 7 7 7 8 8 7 4 4 5 6 3 5 6 4 4 6 5 1 0 4 3 1 1 3 1 2 4 4 4 4 4 4 4 3 3 3 7 7 4 9 9 9 11 13 12 11 11 12 14 15 16 16 16 17 17 17 17 16 17 17 16 16 17 19
9 9 7 7 6 6 7 6 5 6 6 6 5 5 5 5 5 6 6 4 5 6 6 6 5 4 5 5 4 5 4 4 5 6 6 6 5 7 5 3 2 4 1 2 1 2 1 1 2 3 4 4 4 3 3 3 3 7 8 5 7 8 8 10 12 14 14 14 14 15 15 16 16 17 17 18 17 17 17 16 16 16 15 15 17
9 7 7 7 6 6 6 6 6 6 6 6 5 5 4 4 4 5 4 4 5 5 5 7 6 6 5 5 5 3 4 4 4 5 6 7 7 7 8 7 4 3 3 2 1 2 1 2 0 3 4 4 4 4 3 3 4 8 7 4 5 8 8 11 12 15 15 15 14 14 14 15 16 16 17 17 17 17 17 17 18 18 18 18 19
7 8 7 8 8 7 6 6 6 6 6 6 6 5 5 5 4 4 5 2 6 6 5 5 6 6 6 5 6 4 3 3 3 3 3 3 5 6 7 8 9 3 1 3 1 1 0 2 0 2 4 4 3 3 3 4 4 6 5 3 5 5 8 12 13 14 15 14 14 14 15 14 15 16 16 17 18 18 18 18 19 19 18 19 20
7 7 8 7 7 8 7 7 6 6 6 6 5 5 5 5 5 5 6 4 5 6 5 6 5 6 5 6 6 5 4 4 4 3 3 3 3 5 5 8 8 8 6 5 4 3 1 1 2 1 4 4 3 3 3 3 4 5 4 5 6 6 8 12 12 12 13 13 14 14 14 15 16 17 17 18 19 19 19 19 19 19 19 20 21
8 7 8 8 7 7 8 7 7 7 7 6 6 6 6 5 5 4 5 6 6 4 4 6 6 5 6 6 5 6 4 5 5 4 4 4 4 4 4 3 6 9 6 7 5 2 2 1 0 1 2 3 2 3 2 3 6 7 5 6 7 6 10 11 12 12 13 13 13 13 14 15 16 17 18 19 19 19 19 19 19 19 20 21 21
8 8 8 8 8 7 7 8 7 7 6 6 6 6 6 6 5 5 5 6 6 6 4 5 5 6 7 7 5 6 4 5 5 5 4 5 5 4 3 4 4 6 8 6 5 3 1 1 1 2 1 3 2 3 3 3 6 7 6 6 6 9 11 7 11 13 13 14 13 13 15 14 14 15 17 18 19 19 19 20 20 19 20 21 19
9 10 9 9 8 8 7 7 7 7 7 6 6 6 5 5 6 6 5 6 7 7 6 4 5 6 7 7 6 6 4 5 5 5 5 5 4 5 4 4 3 4 7 6 5 5 3 2 2 3 1 2 2 4 5 5 5 7 5 5 6 9 6 6 9 12 12 14 14 13 14 14 13 15 15 17 18 19 20 20 18 17 18 17 18
9 10 9 9 9 9 9 8 8 8 7 7 6 6 6 6 5 6 6 6 7 6 6 6 4 6 7 7 6 5 4 7 5 5 5 5 6 5 4 5 5 3 6 6 6 6 1 1 2 2 2 2 2 3 5 6 7 7 7 5 6 6 6 5 6 9 11 13 13 13 14 14 13 15 16 16 16 17 17 17 18 17 16 17 18
10 11 10 9 8 9 9 8 8 8 7 8 7 6 7 7 6 5 6 7 7 7 6 7 5 5 6 8 6 5 4 7 6 6 5 5 5 6 5 4 5 4 2 5 4 4 4 0 1 1 2 2 3 1 4 5 7 6 7 7 6 5 5 5 5 7 12 12 13 14 14 14 14 14 14 15 16 16 17 17 17 18 17 18 18
9 10 10 10 10 9 9 9 8 8 8 8 7 7 7 8 8 6 6 7 8 8 7 7 7 6 7 7 6 5 5 7 5 5 5 6 5 6 4 4 5 4 4 4 5 4 6 2 1 2 2 2 1 2 3 2 3 3 5 6 6 6 5 4 5 5 10 13 13 12 13 13 14 14 14 15 15 15 16 16 17 17 18 18 19
11 8 9 10 10 10 9 8 8 9 8 8 7 7 9 9 8 8 7 7 7 7 8 8 7 7 8 7 6 6 6 8 6 5 4 5 6 5 5 4 5 5 5 5 4 5 3 4 1 1 1 3 2 2 2 2 3 5 3 6 6 6 6 5 5 5 8 12 13 12 12 13 13 14 14 14 15 15 16 16 17 18 18 18 19
10 10 8 9 10 10 9 9 10 10 10 9 9 8 7 7 9 8 8 7 7 7 7 8 7 7 7 7 7 6 7 8 5 6 5 7 5 6 5 4 5 4 5 5 5 4 6 5 2 1 1 1 1 3 2 4 5 4 4 4 5 7 8 7 4 4 7 11 12 11 11 12 13 14 14 15 16 16 16 17 17 18 18 18 19
11 10 11 10 10 11 10 10 10 9 9 9 9 9 9 8 7 7 7 7 7 7 7 7 7 7 7 8 7 7 7 8 6 5 5 7 6 6 6 4 4 5 6 5 5 5 5 4 3 2 2 2 2 2 1 1 2 4 5 6 6 3 4 9 7 5 4 4 5 6 8 10 12 14 14 14 15 16 16 17 17 18 18 18 19
12 11 10 11 9 10 10 10 9 9 9 9 8 8 8 8 8 8 7 7 7 6 6 7 7 7 7 7 7 6 7 7 8 7 7 6 6 7 6 6 4 6 5 4 4 4 4 4 1 1 1 1 0 2 2 1 2 2 2 5 6 5 4 4 8 6 5 6 8 10 10 9 10 10 12 14 15 16 17 17 18 18 18 18 18
12 12 12 12 10 9 9 9 9 9 9 8 8 8 8 8 8 8 8 8 7 6 6 6 6 6 7 7 7 7 7 7 8 7 7 7 6 7 5 5 5 6 5 4 4 4 4 3 2 2 0 1 2 2 3 3 2 1 1 1 5 6 7 6 4 6 6 5 6 7 8 9 9 11 13 14 15 16 17 16 17 18 18 18 18
10 11 11 11 11 9 8 8 9 8 9 8 8 8 8 8 7 8 8 8 8 8 7 6 6 6 6 6 6 6 6 7 9 8 7 7 8 7 5 5 6 6 5 4 4 4 3 3 2 1 0 0 2 2 4 2 0 3 2 1 3 4 5 6 8 5 3 5 6 6 7 5 7 7 6 7 9 13 13 16 14 16 17 18 19
11 10 10 10 11 12 11 9 8 8 7 6 9 13 11 9 8 7 7 8 8 8 8 7 6 5 7 7 6 9 9 10 10 9 9 8 7 8 9 7 7 6 5 5 4 3 3 4 3 3 1 1 2 2 2 4 3 3 2 1 3 5 5 6 7 3 3 3 7 8 8 5 5 8 6 7 7 8 8 9 9 13 18 20 19
12 11 11 11 10 10 11 11 10 8 7 7 14 14 14 14 10 8 8 8 8 8 8 8 8 7 5 5 6 7 8 8 8 10 9 9 8 8 10 8 6 8 7 5 4 4 4 4 3 2 2 2 3 2 3 4 2 3 3 2 3 3 3 4 5 8 1 3 5 6 8 6 3 7 8 7 7 8 9 9 16 19 20 20 20
11 11 12 12 11 10 9 10 10 9 8 10 16 15 15 15 12 9 8 8 8 8 8 8 8 7 7 6 5 4 6 7 7 7 7 8 8 8 8 8 8 7 6 5 5 4 4 4 3 3 3 3 3 2 3 2 4 3 2 2 3 2 4 4 4 6 4 2 5 5 9 7 3 6 8 7 7 7 9 15 19 19 20 20 19
11 11 12 11 11 11 11 12 10 9 8 13 16 16 15 16 15 11 8 8 8 8 8 8 8 8 7 6 6 4 5 10 7 7 7 6 5 5 5 5 5 6 7 5 4 5 7 5 5 4 6 4 4 4 3 3 2 4 4 3 3 3 2 4 5 4 7 3 4 5 7 9 4 6 8 8 7 7 10 14 18 19 19 19 19
13 12 12 13 12 13 12 12 12 11 10 13 17 17 16 16 15 12 8 9 8 9 9 8 7 8 8 8 7 6 4 5 6 7 6 6 5 4 3 4 4 5 5 7 7 6 6 5 6 5 6 5 5 4 4 3 3 3 3 4 3 4 5 6 8 7 7 2 2 3 5 7 6 6 8 8 7 8 9 14 18 18 18 19 19
13 13 14 13 12 13 13 12 10 10 9 16 18 18 17 17 16 12 8 8 8 8 7 8 8 9 9 8 8 8 8 7 7 8 7 7 7 5 5 5 5 4 4 5 5 6 5 4 5 6 4 6 6 5 4 4 6 5 3 4 4 4 6 7 6 5 5 2 2 1 5 8 5 7 9 8 8 9 9 13 16 16 17 18 19
9 10 11 11 13 14 13 12 11 10 9 17 18 18 18 17 17 9 9 9 8 8 8 7 7 8 8 8 8 8 8 9 9 12 9 7 7 7 6 5 4 3 4 2 2 4 5 6 6 6 5 5 5 6 5 4 4 4 3 3 2 2 3 4 5 6 5 2 1 2 3 7 5 5 10 9 7 9 10 9 14 16 16 17 17
12 12 12 12 11 13 14 13 13 10 9 16 19 19 18 19 14 8 8 8 8 8 8 8 8 8 7 7 8 7 8 8 9 12 10 9 7 7 7 6 4 4 5 2 2 3 6 7 6 7 8 8 8 9 10 10 7 3 1 1 3 2 2 4 5 5 7 5 2 1 2 7 5 3 7 9 9 9 8 8 8 13 15 15 16
12 12 11 7 4 6 10 12 13 12 10 14 19 18 19 19 14 10 8 9 8 8 8 7 7 7 8 13 9 8 8 8 11 13 13 10 7 7 6 6 5 5 6 4 2 1 1 3 6 7 8 9 9 9 10 10 9 5 4 2 3 0 3 2 3 4 7 5 2 2 4 6 7 2 4 7 9 6 7 7 9 11 14 11 14
10 9 9 10 9 9 10 10 9 11 10 12 17 18 19 19 14 11 10 8 9 8 8 7 6 6 6 9 12 9 9 9 14 13 13 11 7 7 7 6 6 6 7 6 5 4 1 1 3 3 5 4 4 4 5 8 7 6 5 5 1 2 4 5 3 3 5 5 1 2 4 6 6 4 1 6 4 8 6 6 10 10 9 8 9
Wind_Direction
178 186 150 171 150 156 167 166 147 195 190 152 150 130 115 124 97 107 111 110 111 111 118 125 126 123 123 122 120 115 110 102 89 79 61 65 69 81 78 75 74 76 79 80 81 84 85 86 86 85 82 80 77 74 72 69 66 65 62 59 57 54 50 49 51 51 45 43 39 38 37 35 37 34 33 32 30 29 27 24 21 19 20 21 21
181 166 168 175 168 170 173 169 165 175 158 171 152 142 171 127 115 124 125 123 124 138 129 132 130 125 124 124 122 116 106 101 90 79 77 63 66 76 78 77 77 79 81 83 85 85 87 87 86 85 84 83 82 77 73 71 67 64 62 58 55 54 53 45 47 49 49 41 39 35 34 37 32 33 29 29 26 26 25 24 23 19 19 17 17
177 175 177 167 175 178 181 161 155 167 159 168 152 141 159 171 171 151 135 125 126 143 138 132 132 126 126 123 121 112 100 93 89 83 73 59 56 64 79 82 82 81 81 84 87 87 88 88 86 84 83 82 83 83 80 75 71 68 65 62 59 54 52 50 43 49 50 41 36 36 32 35 31 34 28 28 23 25 24 18 17 17 17 16 15
181 178 176 172 176 174 163 153 150 154 160 159 147 140 153 174 153 125 114 102 97 97 132 130 131 128 126 121 118 110 104 102 97 91 80 68 62 61 51 71 82 80 80 82 85 89 89 90 90 88 88 88 87 85 83 78 75 71 68 66 62 58 54 51 43 45 48 43 36 32 34 32 33 31 29 22 24 23 25 17 14 15 15 15 13
186 180 183 175 169 160 156 158 151 155 161 168 158 133 134 128 98 99 96 94 91 84 94 113 125 123 122 122 120 111 110 106 101 96 95 86 71 66 57 47 47 81 83 81 80 81 86 87 91 94 93 90 87 85 83 80 78 74 69 64 64 64 57 53 47 44 49 45 37 30 30 30 28 34 26 21 19 30 29 18 17 17 15 14 8
171 174 165 164 160 164 158 160 156 156 156 164 156 152 138 130 129 101 89 88 92 91 111 117 119 121 119 122 111 113 111 99 93 95 99 86 81 68 65 49 55 33 66 85 86 85 86 86 88 89 89 89 87 85 81 76 71 68 67 64 57 59 64 58 51 46 45 44 39 32 27 30 24 26 20 14 17 28 19 20 21 20 16 13 12
166 166 167 162 157 152 164 167 156 153 152 161 142 146 141 131 129 106 87 84 85 81 96 118 128 126 125 120 113 110 101 102 98 99 93 92 79 77 67 70 63 58 54 35 79 86 86 86 87 86 84 83 83 83 81 78 73 66 60 61 62 55 59 60 53 47 43 41 36 32 26 26 24 22 17 9 11 23 17 16 19 18 16 11 8
166 163 161 167 161 161 166 158 159 144 146 143 142 149 139 113 99 129 110 86 94 77 64 106 113 118 116 98 106 106 107 111 112 103 97 87 84 86 82 83 84 84 66 60 50 86 93 91 87 79 74 73 77 78 76 71 67 66 61 55 57 56 52 51 50 46 40 34 33 30 25 20 20 18 16 10 2 23 12 12 11 9 10 9 6
169 166 161 161 156 152 161 164 156 149 149 146 143 153 143 121 97 89 119 117 105 96 78 78 100 94 89 85 77 98 98 111 116 114 97 93 101 98 100 91 86 78 68 70 60 22 84 93 86 79 70 69 71 71 56 52 55 56 60 56 53 49 49 44 37 37 36 27 23 25 20 13 12 11 10 10 2 10 8 11 3 8 10 2 359
169 165 157 160 154 153 159 163 156 147 147 146 149 142 124 128 110 77 105 121 116 115 105 95 86 91 77 64 60 61 86 106 124 116 110 119 111 111 99 92 91 88 80 77 54 65 36 49 65 66 77 73 68 66 65 52 46 48 52 54 49 46 42 40 32 23 24 23 15 15 10 7 3 3 359 6 1 354 355 5 354 353 358 2 1
165 161 153 154 150 154 158 164 157 151 151 152 147 144 122 111 124 101 68 70 124 123 122 110 93 78 71 48 52 63 78 90 89 117 129 126 133 119 98 100 110 99 97 78 77 79 83 77 65 19 357 83 75 72 69 55 39 44 44 46 44 42 36 32 29 18 13 16 10 7 4 2 357 356 353 356 355 346 357 352 347 353 356 2 353
163 160 154 152 154 158 161 160 158 154 155 156 151 157 150 127 127 121 105 83 65 114 121 109 85 79 75 62 52 71 74 76 97 119 123 132 121 115 133 121 117 113 110 96 101 104 116 140 125 354 345 340 68 80 64 47 27 35 37 37 36 35 30 24 20 14 6 7 6 2 2 359 354 352 348 350 348 338 340 341 341 345 0 349 4
163 159 161 158 155 153 153 155 160 163 166 177 164 154 144 140 129 119 126 116 99 126 129 122 116 70 57 60 50 35 60 78 86 90 107 118 117 134 139 133 142 143 147 118 107 154 180 279 286 296 313 337 350 9 13 6 352 9 33 32 25 24 22 17 12 8 1 2 2 360 360 357 350 349 346 347 344 337 331 341 343 350 355 351 6
161 163 160 156 155 159 162 165 167 173 167 147 147 136 130 136 134 99 56 133 145 171 170 121 76 142 137 112 57 40 64 68 68 43 64 106 143 146 161 158 163 163 156 139 178 230 240 284 310 295 276 284 327 11 357 350 334 346 19 25 17 13 14 8 7 3 359 3 0 356 359 354 350 349 345 344 338 330 330 342 345 347 337 348 351
162 163 163 163 165 163 167 160 166 160 138 146 149 144 154 157 160 145 129 56 109 181 184 51 134 113 102 103 153 110 318 39 66 52 47 121 149 167 173 174 175 172 165 167 213 244 266 270 288 278 303 335 357 355 334 334 329 354 356 3 360 4 6 5 3 3 1 2 355 354 356 353 349 348 343 338 331 326 337 344 336 333 330 345 342
165 165 165 162 167 173 158 157 162 166 159 152 159 157 161 167 163 158 145 140 159 196 207 151 137 139 153 156 175 134 150 232 186 185 277 121 160 170 168 174 165 158 142 190 215 232 256 276 273 316 317 315 318 322 335 321 336 345 346 349 348 353 6 9 5 6 359 358 354 355 357 351 347 343 338 332 329 333 339 333 328 326 324 327 326
164 166 164 165 170 168 163 163 159 165 161 156 164 171 175 175 170 160 173 160 177 185 202 143 202 10 139 118 90 171 218 183 124 201 356 132 125 164 165 140 163 174 182 211 226 234 248 273 325 293 319 342 337 342 338 335 338 341 344 345 353 10 24 20 13 7 360 356 354 354 351 344 340 337 333 330 332 333 330 326 324 321 318 319 318
164 161 161 158 170 171 165 159 162 161 169 169 163 149 169 176 186 177 185 192 166 166 190 216 218 103 73 139 165 173 162 202 118 215 3 309 300 250 149 111 129 156 193 205 219 224 16 356 331 339 343 337 333 350 3 353 352 355 2 351 15 35 38 26 20 14 4 357 353 348 343 338 336 334 331 333 335 332 327 323 320 316 313 313 312
162 160 159 166 164 167 165 166 164 165 161 153 164 179 179 186 184 188 192 171 148 172 186 189 94 262 94 44 63 16 139 134 192 85 179 292 326 230 186 66 96 128 180 205 213 91 20 349 357 345 354 339 359 6 24 21 18 11 5 10 36 35 39 34 26 17 5 354 349 346 341 338 337 335 333 337 337 333 328 322 316 314 311 310 310
157 161 163 165 164 165 162 159 160 165 158 169 179 185 169 173 186 194 179 181 175 174 185 174 179 185 126 101 70 81 50 61 148 166 154 166 224 320 304 320 152 141 207 239 32 65 12 357 17 29 25 24 12 28 36 29 20 5 347 24 37 34 32 34 27 16 3 354 352 347 342 340 338 336 337 340 339 334 330 325 319 314 311 309 310
165 164 166 166 168 164 161 158 159 166 167 164 171 175 183 174 170 175 184 189 188 179 161 184 186 170 138 85 95 76 59 53 98 83 137 132 229 185 179 353 9 260 39 75 71 107 72 49 65 55 41 28 23 28 33 28 11 7 5 27 34 31 28 25 20 9 0 356 354 348 343 341 339 337 340 339 336 331 327 323 319 315 313 312 311
163 166 163 169 165 160 163 165 167 162 153 167 162 177 191 188 187 187 183 184 189 171 178 178 192 175 180 155 141 116 81 78 43 91 44 73 165 194 189 169 183 241 40 58 69 70 80 73 64 45 38 30 23 27 33 21 5 16 15 24 28 26 22 20 13 6 359 358 355 350 345 342 342 342 342 341 336 330 326 323 320 318 317 317 316
161 170 173 164 160 161 163 166 157 156 148 155 176 183 189 186 174 164 174 176 175 167 151 163 177 169 173 172 178 174 176 177 188 194 152 140 90 138 179 181 170 142 50 27 91 74 76 65 59 46 30 33 27 29 29 17 1 40 19 20 20 22 19 14 7 359 355 354 353 349 348 348 347 346 344 340 336 333 330 327 325 324 324 321 317
159 161 172 166 156 155 153 148 153 147 162 167 166 169 157 148 152 159 153 143 146 157 160 157 168 172 184 192 192 188 182 182 184 174 178 192 171 161 151 127 70 52 59 80 54 73 61 56 51 48 33 41 35 29 25 21 1 26 19 10 13 15 9 4 0 355 351 351 349 350 351 351 348 345 343 340 337 335 333 329 327 326 321 320 319
174 172 182 170 158 150 154 155 155 164 154 149 150 150 154 155 156 149 151 161 171 167 172 183 173 178 190 187 172 181 198 189 152 171 163 131 138 118 48 54 148 136 43 110 98 21 33 61 46 34 36 38 32 22 14 12 347 15 16 357 2 1 354 351 352 352 351 351 349 348 346 346 344 341 341 339 337 334 330 327 324 318 317 316 315
173 181 169 165 165 166 163 164 155 147 146 146 145 153 155 153 152 147 154 155 145 159 160 149 151 144 140 150 169 172 172 169 162 149 156 142 151 148 137 52 65 115 30 62 30 114 211 49 39 36 43 40 28 14 14 352 313 11 9 1 346 344 341 341 345 348 349 349 345 342 340 339 337 336 337 335 332 329 325 323 322 322 319 315 312
174 154 158 164 161 157 160 152 149 147 137 136 131 137 136 117 121 123 118 136 133 132 136 146 147 151 149 148 140 136 153 157 155 173 165 177 162 156 141 125 58 42 55 53 34 46 218 281 30 36 46 37 23 7 351 340 332 7 0 352 328 335 337 346 346 346 346 343 339 336 333 330 331 330 329 327 327 326 326 327 327 326 323 321 319
149 155 162 160 159 158 154 152 146 143 140 139 145 144 143 130 118 125 119 122 128 127 133 131 136 143 134 129 117 125 133 137 130 135 155 153 149 158 155 152 145 144 39 125 350 129 146 112 146 54 38 24 13 346 338 342 325 357 349 334 334 333 340 345 344 342 341 336 333 332 331 327 327 328 325 325 327 328 328 328 326 324 323 321 320
156 159 157 161 159 158 154 149 149 143 138 142 144 143 141 136 137 136 128 123 113 128 135 132 132 129 119 129 121 125 118 104 94 99 115 112 140 162 171 165 161 142 163 174 201 174 129 21 114 346 31 15 352 337 336 343 331 355 339 342 344 345 334 341 341 337 334 331 331 329 326 326 328 328 327 327 327 327 326 325 323 323 322 321 321
159 160 157 156 158 156 149 149 144 141 143 140 141 141 133 122 130 121 127 127 113 103 121 129 131 122 114 103 113 109 112 98 97 94 89 99 108 139 140 139 156 156 161 165 186 210 119 20 173 332 343 340 333 337 338 314 342 5 352 349 343 331 334 339 337 333 332 330 330 327 324 324 324 324 324 323 323 324 323 322 323 323 321 320 321
153 153 156 159 158 152 149 143 143 141 136 143 142 141 138 126 127 124 130 129 127 126 134 129 137 126 121 114 112 108 111 103 92 81 70 81 85 92 85 128 155 146 150 130 130 236 150 104 292 233 273 298 338 311 317 335 353 359 353 339 328 331 342 332 330 330 329 328 327 326 324 322 317 316 315 316 319 321 322 323 324 321 318 317 315
162 159 161 163 160 152 150 145 143 136 141 145 148 141 134 137 137 135 142 135 130 136 132 119 129 128 124 119 121 123 121 102 84 70 77 69 87 83 83 95 83 123 132 121 123 151 209 179 236 287 256 288 299 1 2 349 346 358 345 330 324 335 343 333 325 320 320 324 324 323 321 319 314 314 313 316 321 323 324 324 320 315 314 310 311
158 161 164 163 160 154 149 152 151 151 151 150 149 140 132 130 133 136 141 142 134 134 129 119 113 124 122 116 117 114 129 105 99 91 77 71 68 67 72 81 90 102 119 109 118 125 102 213 258 257 292 316 25 7 18 355 346 338 339 327 332 333 332 325 317 308 315 320 319 318 318 317 315 317 321 321 320 320 320 318 318 315 311 308 310
164 164 163 158 155 153 153 152 154 151 153 152 149 145 138 136 137 148 147 143 137 135 135 132 132 118 126 118 115 108 107 110 111 96 103 90 79 74 43 70 77 76 74 113 112 125 151 249 337 332 346 4 19 347 31 352 336 332 329 327 322 325 323 325 321 316 313 314 316 316 315 316 318 319 320 320 320 319 318 317 316 314 312 313 314
167 166 161 157 155 154 151 152 151 153 156 155 158 153 151 151 150 158 160 154 150 145 144 142 139 132 120 120 126 122 117 101 94 96 94 93 82 86 77 49 75 63 56 95 122 103 138 150 239 320 353 311 36 325 346 332 298 286 298 318 324 318 321 327 319 310 308 305 305 311 315 317 318 317 317 318 317 316 317 316 315 315 316 317 317
164 163 158 154 152 155 153 151 154 153 153 158 158 162 158 156 156 158 161 160 153 151 147 145 145 144 137 124 136 131 121 111 110 105 85 92 95 96 87 60 79 77 62 72 72 125 150 127 239 206 328 0 310 301 319 300 320 319 313 311 318 317 314 321 312 297 302 303 309 314 314 313 313 314 314 315 317 318 319 319 319 318 317 316 316
165 154 155 153 154 158 160 159 151 160 165 160 158 159 161 162 161 160 160 152 149 148 151 151 152 146 142 138 143 134 128 117 119 111 121 107 102 102 98 84 87 82 71 74 79 88 117 124 146 287 291 288 262 304 356 356 333 325 314 323 324 315 312 311 293 272 278 297 303 308 310 312 314 318 321 322 322 321 320 319 318 317 315 315 315
163 165 161 164 166 167 164 165 164 161 159 163 164 163 161 158 156 156 151 149 147 147 147 148 144 146 143 140 143 142 139 136 144 131 127 124 117 112 114 104 96 83 88 76 75 85 98 112 108 93 27 14 340 285 212 125 307 317 330 328 320 288 315 327 325 316 317 297 297 311 318 318 318 316 315 318 318 319 320 319 318 316 314 313 311
165 165 167 165 171 166 165 160 160 158 159 161 162 162 159 155 153 147 143 142 142 142 145 143 141 140 141 140 143 151 145 142 144 151 142 135 130 134 136 134 123 109 101 95 95 96 109 121 74 47 340 296 127 306 315 350 263 252 313 333 330 323 326 324 311 311 311 317 313 310 315 312 311 316 320 321 323 324 324 321 316 313 311 308 309
169 168 167 171 166 164 161 163 160 155 154 157 161 161 158 157 152 152 150 146 142 139 137 136 136 141 145 148 149 157 154 153 148 152 149 144 133 129 139 125 132 117 118 118 107 117 118 103 102 128 345 319 318 273 291 315 11 352 86 344 294 310 324 319 280 297 305 309 316 323 321 324 330 325 326 327 323 322 318 314 310 308 307 308 312
170 171 168 162 156 156 151 153 153 155 158 164 165 161 156 158 155 151 152 149 149 146 139 133 133 138 143 151 157 158 163 161 161 157 166 154 145 144 164 147 138 126 119 120 127 119 114 113 117 76 93 305 273 328 331 354 265 282 306 299 277 292 309 310 305 293 260 309 309 314 316 329 318 315 314 311 313 315 310 307 304 303 306 311 313
165 162 163 164 162 159 156 156 156 158 165 164 170 166 163 158 157 152 150 153 155 152 145 136 137 145 157 156 168 172 167 161 157 159 161 167 162 154 158 159 146 136 140 140 148 150 138 145 162 159 111 261 251 237 236 247 262 273 283 285 300 308 322 317 299 256 307 311 328 325 314 316 311 307 315 313 304 306 301 303 302 309 311 312 315
165 164 164 164 162 160 160 158 163 168 167 173 170 167 162 156 153 156 157 159 159 155 151 151 151 157 159 164 168 176 170 159 155 161 163 163 157 149 156 168 163 152 149 151 164 164 164 161 154 151 182 241 263 213 230 272 241 258 283 279 275 297 326 328 323 307 160 354 338 316 302 313 329 311 310 308 305 306 302 299 305 309 310 314 316
170 166 167 170 163 157 159 165 168 170 172 173 167 168 163 161 160 159 159 158 163 164 160 158 156 156 159 162 180 175 153 159 151 154 160 160 161 163 172 181 187 180 169 157 157 164 183 159 166 206 166 218 256 209 243 239 284 293 247 256 236 270 309 308 299 300 297 33 321 312 303 306 335 308 308 307 307 302 303 304 306 309 312 315 318
159 168 173 163 163 163 164 166 171 173 174 170 168 167 165 165 163 157 161 158 157 155 157 158 155 151 149 167 168 168 161 160 146 148 153 149 145 163 179 206 218 215 214 208 172 167 161 155 169 193 201 196 218 249 213 212 182 264 304 299 297 285 245 279 287 290 301 2 324 315 307 306 324 316 312 305 312 306 305 306 308 310 311 315 319
167 170 170 174 171 167 168 169 175 176 172 170 168 168 168 167 165 158 157 156 156 158 160 162 164 161 164 172 165 153 165 153 148 154 157 148 147 146 189 214 230 237 222 223 215 176 173 176 170 191 221 177 216 221 218 163 189 247 256 275 287 303 304 295 296 282 282 298 273 292 276 305 333 324 309 308 315 309 301 304 306 308 312 317 320
166 172 176 179 179 170 169 173 169 171 177 167 170 169 169 167 165 159 158 157 158 163 165 166 170 168 177 177 168 163 164 168 166 168 161 160 157 168 178 200 222 227 224 213 193 184 191 194 199 214 209 200 231 245 233 221 230 235 226 253 289 289 289 284 264 242 280 190 208 207 307 307 326 323 307 311 315 306 299 305 305 308 314 317 319
175 169 177 189 177 171 170 167 167 173 170 167 170 169 167 166 164 164 160 157 162 165 171 174 173 174 174 175 169 168 172 175 181 176 171 156 156 162 178 189 218 228 238 233 227 201 200 192 197 209 219 218 221 237 237 230 240 246 254 270 296 268 294 317 324 309 294 270 188 222 286 301 317 314 304 308 310 307 304 300 305 310 312 315 318
174 176 182 189 187 176 167 167 169 171 165 173 171 168 167 166 165 161 160 159 166 170 174 176 175 171 178 183 174 169 177 186 174 173 168 158 164 170 179 185 191 201 214 222 252 240 227 223 232 241 250 258 259 263 268 258 246 219 154 254 248 198 317 328 315 324 306 319 305 155 267 286 301 320 303 308 314 300 297 299 304 313 316 316 318
181 184 177 168 167 175 165 166 172 168 170 175 172 168 166 170 164 155 161 164 171 175 172 177 176 176 187 189 179 172 176 187 173 181 168 167 173 176 176 177 190 210 224 218 282 268 289 238 242 251 260 266 264 267 269 269 255 197 187 264 289 293 299 263 291 301 294 298 248 150 304 287 306 296 290 300 307 282 293 295 308 311 316 317 320
171 162 156 157 167 174 178 169 160 164 164 171 171 167 169 170 165 161 163 168 169 175 171 177 181 175 186 197 186 175 180 187 179 179 175 179 181 177 180 171 195 211 221 189 186 179 215 316 245 305 291 271 263 252 265 259 240 222 217 246 254 220 285 294 286 298 316 297 214 170 329 298 313 306 350 317 298 290 287 303 314 310 311 313 325